Preview of NWS' New Version of Forecast
This preview is not operational and should not be used for support decisions.

Regional Weather Roundup (RWR)

Issued by National Weather Service (NWS)

                            
000
ASUS44 KJAN 210210
RWRMS 

MISSISSIPPI HOURLY WEATHER ROUNDUP
NATIONAL WEATHER SERVICE JACKSON MS
800 PM CST WED FEB 20 2019

NOTE: "FAIR: INDICATES FEW OR NO CLOUDS BELOW 12,000 FEET WITH NO
SIGNIFICANT WEATHER AND/OR OBSTRUCTIONS TO VISIBILITY.

MSZ001>002-007>008-010>013-018>021-025>028-034>036-210300-
NORTHWEST MISSISSIPPI
  
CITY           SKY/WX    TMP DP  RH WIND       PRES   REMARKS
BATESVILLE     FAIR      39  39 100 CALM      30.00R                  
CLARKSDALE     MOCLDY    41  41 100 CALM      30.02R                  
CLEVELAND      FAIR      44  44 100 N3        30.01S                  
GREENWOOD      FAIR      46  44  93 CALM      30.00S                  
GREENVILLE     FAIR      45  43  93 CALM      30.00S                  
OLIVE BRANCH   CLEAR     43  43 100 CALM      30.00R                  
OXFORD         FAIR      39  39 100 CALM      30.02R                  
TUNICA           N/A     41  39  93 CALM      30.02R                  
WINONA         FAIR      45  45 100 CALM      30.00R                  
$$

MSZ003>006-009-014>017-022>024-029>033-037>039-210300-
NORTHEAST MISSISSIPPI
  
CITY           SKY/WX    TMP DP  RH WIND       PRES   REMARKS
ABERDEEN       CLOUDY    50  50 100 NW7       30.02R                  
COLUMBUS AFB   CLOUDY    52  49  90 NW8       30.00R                  
CORINTH        CLOUDY    48  45  87 W8        30.00R                  
GOLDN TRIANGLE CLOUDY    51  48  89 NW6       30.01R                  
STARKVILLE     FAIR      50  46  87 NW3       30.01R                  
TUPELO         CLOUDY    49  45  86 N7        30.00R                  
$$

MSZ040-058-210300-
CENTRAL MISSISSIPPI
  
CITY           SKY/WX    TMP DP  RH WIND       PRES   REMARKS
JACKSON INTL   CLOUDY    53  47  79 N6        29.99R                  
JACKSON HAWKNS CLOUDY    53  48  83 N3        30.00R                  
MADISON        FAIR      50  50 100 NW3       29.99R                  
MERIDIAN KEY   CLOUDY    59  55  87 NW6       29.98R                  
MERIDIAN NAS   CLOUDY    59  56  89 NW7       29.98S                  
RAYMOND        FAIR      52  50  93 CALM      30.00R                  
VICKSBURG VKS  CLOUDY    52  48  87 CALM      30.01R                  
$$

MSZ059>079-210300-
SOUTH MISSISSIPPI
  
CITY           SKY/WX    TMP DP  RH WIND       PRES   REMARKS
HATTIESBURG    CLOUDY    62  59  90 NW3       29.98R                  
LAUREL           N/A     59  58  97 NW7       29.98S                  
MCCOMB         LGT RAIN  55  50  83 N3        29.97R                  
NATCHEZ        CLOUDY    52  47  83 NE3       30.00R                  
PINE BELT      LGT RAIN  59  56  89 N7        29.98R                  
$$

MSZ080>082-210300-
COASTAL MISSISSIPPI
  
CITY           SKY/WX    TMP DP  RH WIND       PRES   REMARKS
BILOXI         FOG       66  66 100 SW6       29.96R VSB 5/8          
PASCAGOULA     CLOUDY    71  69  93 VRB6      29.96R FOG              
GULFPORT       CLOUDY    66  65  96 N3        29.96R FOG              
$$

LAZ007>009-015>016-023>026-210300-
NORTHEAST LOUISIANA
  
CITY           SKY/WX    TMP DP  RH WIND       PRES   REMARKS
BASTROP        FAIR      41  41  99 CALM      30.01R                  
TALLULAH/VBURG CLOUDY    52  45  77 CALM      30.01R                  
VIDALIA        CLOUDY    53  47  81 CALM      30.00R                  
$$